Wind_Speed
44 45 45 45 46 47 48 49 49 49 49 50 51 50 50 49 50 50 50 50 51 51 52 52 52 52 53 53 53 53 53 53 52 52 52 53 53 53
44 44 44 45 46 47 47 48 49 49 48 48 48 48 48 49 49 49 50 51 51 52 52 52 52 52 53 52 52 52 52 52 52 52 52 52 52 52
44 44 45 46 46 47 47 48 48 48 47 47 46 46 47 48 48 49 50 51 52 52 52 53 52 52 51 52 52 51 50 50 49 50 50 50 50 51
43 44 44 45 45 45 46 46 46 46 46 45 45 45 46 47 48 50 51 52 52 52 52 52 52 51 51 50 49 49 49 48 48 49 49 49 49 49
42 42 43 43 44 44 44 44 44 45 45 45 44 45 45 46 48 49 50 50 51 51 51 52 51 51 51 50 49 48 48 49 49 49 49 49 49 48
41 42 42 43 43 43 42 43 43 44 44 44 44 45 45 46 47 47 47 48 48 49 50 50 50 50 50 49 49 48 48 48 48 48 47 47 48 48
41 42 42 42 42 42 42 43 43 43 44 44 45 45 45 45 46 46 46 47 47 48 48 48 48 48 49 49 49 48 47 47 47 47 47 47 47 47
41 41 41 41 41 41 41 42 43 43 43 43 43 43 44 44 45 45 46 46 46 47 47 46 46 46 47 48 47 48 47 46 45 45 45 45 46 46
40 40 40 40 41 41 41 42 42 43 43 43 42 42 43 43 44 45 45 45 45 45 45 44 44 44 44 46 46 46 46 46 44 44 44 44 45 45
39 40 40 40 40 41 41 42 42 42 42 43 42 43 43 44 44 44 44 43 43 43 44 43 42 42 42 43 44 44 44 44 43 43 43 44 44 44
38 39 39 39 40 41 41 42 42 42 43 43 43 43 44 44 43 43 42 41 41 41 42 42 42 42 42 41 41 41 41 42 42 42 42 42 42 42
38 38 39 39 39 40 41 41 41 41 42 42 42 42 42 42 42 41 41 41 40 40 40 41 41 41 40 40 39 39 39 40 40 41 41 40 39 38
38 38 38 38 39 39 40 41 41 41 41 41 41 41 41 40 40 39 39 40 40 40 39 39 39 39 39 39 39 38 38 38 39 38 38 37 37 37
37 37 37 38 39 39 40 41 41 41 41 41 40 39 39 38 37 37 38 38 38 38 38 38 38 38 38 38 37 36 36 36 36 36 35 36 36 35
37 37 38 38 39 39 39 40 40 40 40 39 39 38 37 36 36 36 36 36 36 36 36 36 36 36 36 36 35 34 34 34 34 34 34 34 34 34
37 37 38 38 38 38 38 39 39 39 39 38 37 36 36 35 35 35 35 34 34 34 34 34 34 35 34 34 33 32 32 32 32 33 33 33 33 34
36 36 37 37 37 37 37 37 37 37 36 36 35 34 34 34 34 34 33 33 32 31 31 31 31 31 31 30 30 30 30 30 31 31 31 31 31 31
35 35 35 35 35 35 35 35 35 35 34 34 33 33 32 32 32 32 32 31 31 30 30 30 29 29 28 28 28 28 28 29 29 29 29 28 28 28
34 34 33 33 33 33 33 33 33 32 32 32 31 31 30 30 30 30 30 29 29 29 29 29 28 28 27 27 27 27 27 27 28 28 27 27 26 26
33 32 32 31 31 31 31 31 31 30 30 30 29 29 29 29 28 28 29 28 28 28 28 28 27 27 26 26 25 25 26 26 26 26 26 25 25 25
31 31 30 30 30 30 30 30 29 29 29 29 29 28 28 28 28 28 28 28 27 27 26 26 26 26 26 25 24 24 24 24 24 23 24 24 24 24
29 29 28 29 29 29 29 29 28 28 28 28 28 27 27 27 26 26 27 27 26 25 25 24 24 25 25 24 24 23 23 23 22 21 22 22 22 22
28 28 28 28 28 29 28 28 27 27 27 27 27 26 26 25 25 25 25 25 25 24 24 23 24 24 23 23 22 22 21 20 19 18 18 18 19 19
Wind_Direction
276 277 277 276 276 276 277 278 279 278 277 277 277 277 276 274 273 272 273 274 273 273 274 274 274 273 273 272 271 271 271 271 270 269 267 265 265 265
277 277 277 277 278 278 279 280 279 280 279 279 278 276 275 274 274 273 272 273 274 274 275 274 274 273 273 273 272 271 271 271 270 269 267 266 265 264
277 277 277 278 279 279 279 280 280 280 281 280 279 277 276 275 274 274 274 274 274 275 275 274 273 274 274 273 272 271 271 271 270 268 267 266 265 265
277 278 278 279 280 280 280 281 281 282 282 281 280 278 278 277 277 276 276 276 275 274 274 274 274 273 273 273 273 272 271 271 271 269 267 266 266 266
279 280 280 281 281 282 282 283 284 284 284 283 281 280 280 279 279 278 278 278 276 274 274 273 273 273 272 272 272 272 271 271 270 269 269 267 265 265
281 281 282 282 282 282 283 284 284 284 284 283 282 281 281 281 281 280 279 278 276 274 274 273 272 272 271 272 271 271 271 270 269 268 268 266 265 264
282 282 283 283 282 283 283 284 284 285 285 285 283 283 283 282 282 281 281 279 277 276 274 274 273 272 272 272 271 270 270 269 268 268 267 266 264 264
283 283 283 283 283 284 284 285 286 286 286 286 285 284 284 284 283 282 282 280 278 276 275 274 274 273 272 271 270 270 270 269 269 268 267 267 264 263
283 284 284 284 285 285 285 286 287 287 287 286 286 286 286 285 285 283 283 282 280 278 276 275 275 275 274 273 271 271 271 269 269 267 267 268 266 265
284 285 285 285 285 285 286 286 288 288 288 287 286 286 286 287 287 285 284 282 281 281 279 277 275 275 275 276 275 273 271 270 269 267 267 268 268 267
285 286 286 285 285 286 286 287 287 288 288 288 287 287 287 286 286 285 284 282 281 280 280 279 277 276 277 277 276 274 271 270 269 267 268 269 269 268
285 286 286 286 285 286 287 288 288 288 288 289 288 287 286 286 284 284 283 282 281 281 281 280 279 278 276 276 275 274 273 271 270 269 269 269 269 269
286 288 288 288 287 287 288 288 289 289 290 290 289 288 286 285 284 283 283 282 282 283 282 280 280 279 278 275 273 274 274 272 271 270 269 267 266 266
287 288 289 289 289 288 288 288 289 290 291 291 290 289 287 284 283 282 283 283 283 284 283 282 281 280 279 277 274 272 273 272 270 268 267 266 264 264
286 287 288 289 289 288 289 289 290 291 291 291 290 288 286 284 283 283 283 283 284 284 284 283 282 282 280 278 275 273 272 271 269 267 267 266 264 264
288 288 289 289 288 288 289 289 290 291 290 291 290 288 286 285 283 282 283 283 283 283 284 283 282 281 281 280 277 275 273 271 269 267 266 266 265 265
289 289 289 289 289 289 290 290 291 291 290 289 290 289 287 284 283 283 283 283 282 282 282 283 283 282 281 280 278 275 273 271 270 267 266 265 265 265
290 290 290 290 290 291 291 291 291 290 289 288 288 290 288 285 283 283 283 284 283 282 282 281 281 281 280 279 278 277 273 271 269 267 266 264 264 263
291 291 290 291 291 292 292 292 292 291 290 289 289 289 288 287 285 283 283 283 283 283 281 279 279 280 280 281 279 276 275 273 270 268 265 263 262 259
291 290 290 291 292 293 293 294 294 293 292 291 289 288 288 288 287 285 284 283 283 283 281 280 279 280 281 282 279 276 275 275 272 267 262 260 259 256
291 290 291 291 293 294 295 295 295 295 294 294 292 291 290 290 289 287 285 284 283 283 281 280 279 280 281 281 278 276 275 274 271 265 261 258 256 255
291 291 291 291 292 294 296 297 296 296 296 296 295 294 294 292 290 288 287 285 283 282 281 281 281 281 282 281 279 276 274 273 270 264 259 255 254 252
292 292 292 293 293 294 296 296 296 297 297 297 296 296 296 295 293 292 290 287 284 282 281 281 282 281 281 281 279 276 274 271 266 260 256 253 251 251
Height
5641 5641 5640 5639 5638 5637 5636 5634 5634 5634 5634 5632 5630 5628 5627 5626 5626 5625 5624 5624 5623 5622 5622 5621 5621 5620 5619 5618 5617 5617 5616 5615 5615 5615 5616 5616 5617 5618
5630 5629 5628 5627 5626 5625 5623 5622 5620 5619 5618 5618 5616 5614 5612 5612 5611 5610 5610 5609 5608 5607 5606 5605 5605 5604 5603 5602 5601 5601 5600 5600 5600 5600 5601 5601 5602 5603
5619 5618 5617 5615 5614 5612 5610 5609 5607 5605 5604 5604 5602 5600 5598 5598 5597 5596 5595 5594 5593 5592 5590 5590 5589 5589 5588 5587 5586 5585 5586 5585 5585 5585 5586 5587 5587 5589
5608 5607 5605 5604 5602 5600 5598 5596 5594 5592 5591 5590 5589 5587 5585 5584 5583 5581 5580 5579 5578 5576 5575 5574 5574 5573 5572 5571 5571 5571 5571 5571 5571 5571 5572 5573 5574 5574
5596 5595 5593 5592 5590 5588 5586 5584 5582 5580 5578 5577 5576 5574 5572 5570 5569 5567 5565 5564 5562 5561 5560 5559 5559 5558 5557 5556 5556 5557 5557 5557 5557 5557 5557 5558 5559 5560
5585 5583 5582 5580 5579 5576 5574 5572 5570 5568 5566 5564 5563 5561 5559 5557 5555 5553 5552 5549 5548 5546 5545 5544 5544 5543 5542 5543 5543 5543 5543 5542 5542 5543 5543 5544 5545 5546
5574 5572 5571 5569 5566 5564 5563 5560 5558 5556 5554 5552 5550 5548 5546 5544 5541 5539 5538 5536 5534 5532 5531 5530 5530 5529 5528 5528 5528 5528 5528 5528 5528 5529 5529 5530 5531 5532
5563 5561 5559 5557 5555 5553 5551 5549 5546 5544 5541 5539 5537 5535 5533 5530 5528 5526 5524 5523 5523 5521 5518 5517 5516 5515 5515 5514 5514 5514 5514 5514 5514 5515 5515 5516 5517 5518
5552 5550 5548 5546 5544 5541 5539 5537 5535 5532 5529 5527 5525 5522 5520 5518 5516 5514 5511 5509 5507 5506 5504 5505 5503 5502 5501 5500 5500 5500 5500 5500 5500 5501 5502 5502 5503 5504
5541 5539 5537 5535 5532 5530 5528 5526 5523 5520 5517 5515 5513 5510 5508 5505 5503 5501 5498 5496 5495 5493 5491 5492 5491 5490 5489 5488 5487 5486 5486 5487 5487 5487 5488 5489 5489 5490
5530 5528 5526 5524 5521 5519 5517 5515 5512 5509 5505 5503 5500 5497 5495 5492 5490 5488 5486 5484 5484 5482 5479 5479 5479 5478 5477 5476 5474 5473 5473 5474 5474 5474 5475 5476 5476 5476
5520 5518 5515 5513 5510 5507 5505 5503 5500 5497 5494 5491 5488 5485 5482 5480 5477 5475 5474 5472 5471 5471 5469 5467 5466 5465 5466 5465 5463 5462 5461 5461 5462 5462 5462 5462 5463 5463
5509 5507 5504 5501 5499 5496 5494 5491 5489 5486 5483 5480 5476 5473 5471 5468 5466 5464 5462 5461 5460 5458 5457 5455 5454 5452 5452 5453 5452 5451 5450 5450 5450 5450 5450 5450 5451 5451
5498 5496 5493 5491 5488 5485 5482 5480 5477 5474 5471 5468 5465 5462 5460 5458 5455 5453 5451 5449 5448 5447 5445 5443 5442 5441 5440 5440 5440 5440 5439 5438 5438 5439 5439 5439 5439 5440
5487 5485 5482 5480 5477 5474 5471 5468 5465 5462 5459 5456 5454 5451 5449 5447 5445 5443 5441 5439 5437 5435 5434 5432 5431 5430 5429 5428 5428 5428 5428 5428 5427 5428 5428 5428 5429 5429
5476 5474 5471 5469 5466 5464 5461 5458 5455 5451 5448 5446 5443 5441 5438 5436 5435 5433 5431 5430 5428 5426 5424 5422 5421 5420 5419 5418 5417 5417 5417 5418 5417 5417 5417 5417 5418 5418
5465 5463 5461 5458 5455 5453 5450 5447 5444 5441 5438 5435 5433 5430 5428 5426 5425 5423 5421 5420 5418 5417 5415 5413 5412 5410 5409 5408 5408 5407 5407 5407 5407 5407 5407 5408 5408 5408
5455 5452 5450 5447 5445 5442 5439 5436 5433 5430 5428 5425 5423 5421 5418 5417 5415 5413 5411 5410 5409 5407 5406 5404 5403 5401 5401 5399 5398 5398 5398 5397 5397 5397 5397 5398 5399 5399
5444 5442 5439 5437 5435 5432 5429 5426 5423 5420 5418 5415 5413 5411 5409 5407 5405 5404 5402 5401 5400 5398 5397 5395 5394 5393 5392 5392 5390 5389 5388 5388 5388 5388 5388 5389 5390 5391
5434 5432 5430 5428 5425 5423 5420 5417 5414 5411 5409 5406 5404 5402 5400 5398 5397 5395 5393 5392 5391 5389 5388 5387 5386 5385 5384 5383 5382 5381 5380 5380 5379 5380 5380 5381 5382 5384
5425 5423 5421 5419 5416 5414 5411 5408 5406 5403 5401 5398 5396 5394 5392 5390 5388 5386 5385 5383 5382 5381 5380 5379 5378 5377 5375 5375 5374 5374 5373 5372 5372 5372 5373 5374 5375 5376
5416 5414 5412 5410 5408 5405 5403 5400 5398 5395 5393 5391 5388 5386 5384 5382 5380 5378 5377 5375 5374 5373 5372 5371 5370 5369 5368 5367 5367 5366 5366 5365 5365 5365 5365 5366 5367 5369
5408 5406 5404 5402 5399 5397 5395 5392 5390 5388 5385 5383 5381 5379 5377 5375 5373 5371 5369 5368 5366 5365 5364 5364 5363 5362 5361 5360 5359 5359 5359 5358 5358 5358 5359 5360 5361 5362